Location: Apeadero de Los Molinos-Guadarrama
(40.7091°N, 4.0689°W)
Time: 11:30:46
(UTC+00:00)

ATLAS 2AS CENTAUR R/B - Pass Details

Date: 14 May 2021
Orbit: 949 x 1263 km, 63.7° (Epoch: 07 May)

Event Time Altitude Azimuth Distance (km) Brightness Sun altitude
Rises 22:50:52 0° 322° (NW) 4,050 6.9 -27.5°
Reaches altitude 10° 22:53:44 10° 318° (NW) 3,040 5.9 -27.7°
Maximum altitude 23:00:40 53° 244° (WSW) 1,302 3.0 -28.1°
Enters shadow 23:01:21 51° 223° (SW) 1,322 2.9 -28.2°
